Retour au catalogue

SL-8 R/B

ActifLEO
NORAD 8615·ROCKET BODY·🇷🇺 Russia

Lancé Jan 28, 1976 depuis Plesetsk Cosmodrome

Loading…

Prochains Passages (prochaines 24 heures)

TLE

FraisSource: Space-Track

Époque: Sep 14, 2026, 14:11 UTC

1 08615U 76008J   26257.59145620 -.00000065  00000-0 -46824-3 0  9995
2 08615  74.0523 109.8405 0133287 187.6653 200.0297 12.20894889256420

Suivez SL-8 R/B en temps réel avec AllMySat

Download on the App Store